Flag for U.S.A. Weather past 2 weeks in Birmingham, Alabama, U.S.A.

Now
36 °F

Low clouds.


Feels Like: 28 °F
Forecast: 26 / 45 °F
Wind: 13 mph from North

Location: Birmingham International Airport

Current Time: Mar 5, 2015 at 11:04:01 AM

Latest Report: Mar 5, 2015 at 9:53 AM


Visibility: 10 mi

Pressure: 30.17 "Hg

Humidity: 89%

Dew point: 33 °F

Location of BirminghamLocation

Historic Weather in Birmingham — Graph

°F

Birmingham temperature yesterday

Maximum temperature yesterday: 77 °F (at 1:53 PM)
Minimum temperature yesterday: 46 °F (at 11:53 PM)
Average temperature yesterday: 65 °F

Past Weeks' High & Low Weather Summary

 TemperatureHumidityPressure
High77 °F (Mar 4, 1:53 PM)100% (Feb 21, 10:03 PM)30.56 "Hg (Feb 21, 10:03 PM)
Low14 °F (Feb 19, 6:53 AM)21% (Feb 19, 4:53 PM)29.76 "Hg (Feb 25, 5:53 PM)
Average42 °F73%30.22 "Hg
* Reported Feb 18 9:53 AM — Mar 5 9:53 AM, Birmingham, Weather by CustomWeather, © 2015

Note: Actual official high and low records may vary slightly from our data, if they occured in-between our weather recording intervals... More about our weather records

Advertising

Birmingham weather history for previous 24 hours

 ConditionsComfort  
Time TempWeatherWind HumidityBarometerVisibility
9:53 AM
Thu, Mar 5
36 °FLow clouds.13 mph89%30.17 "Hg10 mi
9:03 AM35 °FLight rain. Fog.12 mph92%30.18 "Hg5 mi
8:53 AM35 °FLight rain. Fog.12 mph92%30.20 "Hg2 mi
7:55 AM34 °FRain. Fog.8 mph92%30.17 "Hg2 mi
6:53 AM36 °FLight rain. Mostly cloudy.18 mph89%30.09 "Hg8 mi
5:53 AM37 °FLight rain. Fog.16 mph93%30.05 "Hg5 mi
5:04 AM38 °FRain. Fog.7 mph97%30.00 "Hg2 mi
4:53 AM38 °FLight rain. Fog.9 mph93%29.97 "Hg3 mi
3:53 AM39 °FFog.13 mph96%29.96 "Hg4 mi
2:53 AM41 °FFog.15 mph93%29.97 "Hg3 mi
1:53 AM43 °FLow clouds.12 mph93%29.97 "Hg8 mi
12:53 AM44 °FLow clouds.10 mph93%29.96 "Hg10 mi
11:53 PM
Wed, Mar 4
46 °FLight rain. Low clouds.10 mph93%29.96 "Hg10 mi
10:53 PM49 °FLow clouds.10 mph93%29.93 "Hg10 mi
9:53 PM53 °FOvercast.10 mph89%29.94 "Hg10 mi
8:53 PM66 °FPassing clouds.6 mph90%29.90 "Hg10 mi
7:53 PM68 °FPassing clouds.10 mph87%29.88 "Hg10 mi
6:53 PM67 °FPassing clouds.9 mph93%29.88 "Hg10 mi
5:53 PM65 °FLight rain. Fog.13 mph94%29.90 "Hg4 mi
4:53 PM74 °FPartly sunny.10 mph67%29.86 "Hg10 mi
3:53 PM72 °FBroken clouds.10 mph76%29.88 "Hg10 mi
2:53 PM76 °FBroken clouds.21 mph58%29.87 "Hg10 mi
1:53 PM77 °FBroken clouds.22 mph60%29.88 "Hg10 mi
12:53 PM74 °FPartly sunny.20 mph67%29.92 "Hg10 mi
11:53 AM72 °FPartly sunny.18 mph73%29.96 "Hg10 mi
Weather by CustomWeather, © 2015

See weather overviewHow to use our weather pages